RH
50 66 60 82 79 69 50 46 35 9 3 3 2 2 2 2 3 4 4 5 6 6 6 8 9 9 8 8 13 16 16 20 12 11 9 11 11 6 2 2 1 1 4 7 8
67 67 71 89 91 71 66 20 5 3 3 3 2 2 3 3 4 5 5 8 8 9 9 9 9 8 9 10 12 11 9 10 6 2 1 1 1 4 5 6 8 8 10 10 11
70 69 76 80 81 63 12 3 3 4 2 2 2 2 2 2 3 4 7 8 12 10 10 9 7 5 3 2 1 1 1 1 3 3 4 5 6 7 8 8 8 9 9 10 10
74 88 75 76 29 6 3 4 4 3 3 2 2 3 2 2 2 2 1 2 5 8 4 5 4 2 2 3 3 2 3 4 5 6 6 7 7 8 9 11 12 10 9 10 10
76 68 63 7 4 4 3 3 3 4 4 4 4 5 4 5 5 5 5 3 3 2 2 2 2 2 3 3 4 4 5 6 8 10 10 10 10 10 11 13 12 13 11 12 13
54 18 2 3 4 3 4 4 5 6 6 7 7 8 9 10 11 10 11 11 13 12 11 9 6 4 5 5 5 6 7 8 9 10 10 10 12 14 12 9 7 8 9 10 8
2 1 2 3 3 3 3 4 4 5 6 7 7 8 9 10 11 12 12 13 15 16 17 21 16 12 9 9 7 6 7 10 11 11 12 14 13 16 14 12 10 10 10 10 11
1 2 3 4 4 4 4 5 5 5 7 8 8 8 7 8 8 10 11 12 12 12 14 16 18 15 13 13 12 12 12 13 13 14 13 16 13 10 12 12 12 14 13 15 13
2 3 4 4 4 4 6 6 6 6 6 6 6 7 7 8 7 8 8 9 12 14 14 13 14 15 15 17 15 17 16 16 15 16 16 16 15 14 12 13 14 15 17 20 21
3 4 4 6 7 6 6 6 6 6 6 7 7 7 8 8 7 8 7 7 9 13 14 15 14 17 16 17 18 16 14 15 14 15 15 16 16 16 15 14 15 15 18 21 23
4 6 8 7 6 5 5 5 5 6 5 6 4 4 4 5 6 7 9 8 8 11 13 14 15 18 17 16 17 18 18 17 15 15 15 16 14 15 17 17 19 21 23 24 26
7 6 5 4 4 4 4 4 4 4 4 4 3 3 3 4 5 6 9 14 12 9 12 11 12 16 18 18 16 18 19 19 18 17 18 20 16 14 16 20 23 28 31 30 32
5 4 4 4 4 5 5 5 6 6 7 7 6 5 5 4 5 8 10 18 18 16 11 11 12 13 15 15 14 12 14 16 16 16 18 23 23 25 26 28 29 29 29 30 30
4 4 4 4 5 6 6 7 8 8 8 8 8 7 5 4 5 8 12 18 23 23 21 17 13 12 14 15 14 12 10 12 14 18 20 22 22 26 24 24 26 27 29 28 26
4 4 5 7 8 8 9 9 9 8 8 7 7 6 5 4 5 7 12 19 24 28 28 28 26 22 17 14 15 16 13 11 11 18 20 22 23 20 20 20 20 23 26 27 29
5 5 4 6 7 8 8 8 8 8 7 6 6 6 6 6 6 8 10 20 23 23 21 21 22 22 25 23 17 15 15 14 14 23 23 22 23 17 18 21 23 27 32 37 44
6 6 6 6 7 7 6 4 4 4 5 5 6 6 6 9 12 14 16 20 18 15 14 14 18 21 21 22 24 23 18 13 15 18 22 20 19 20 22 29 34 38 44 43 48
6 6 6 6 6 5 2 1 2 3 4 4 5 8 14 14 14 17 18 16 13 13 20 23 24 22 26 28 30 26 21 19 22 21 22 22 26 29 28 34 36 32 36 42 48
5 3 3 4 3 0 1 4 8 9 10 10 11 14 16 16 16 14 13 16 28 31 34 33 32 33 33 31 28 27 21 23 23 22 22 23 26 30 31 31 32 36 43 47 47
2 2 2 1 2 7 13 14 15 18 18 17 16 18 19 20 33 43 37 35 36 37 40 40 37 38 34 31 30 32 28 24 22 22 19 26 36 40 38 34 41 47 44 42 44
1 2 3 10 22 24 20 20 25 29 34 30 28 31 37 42 44 39 34 30 27 37 45 45 44 44 45 37 33 32 32 31 31 32 31 31 35 51 47 48 49 47 45 42 37
6 9 13 23 30 27 22 26 28 33 35 36 34 30 28 31 36 35 32 29 30 38 47 50 50 48 46 42 40 41 39 39 38 38 41 47 40 56 53 51 47 42 39 37 37
5 7 14 23 36 31 28 25 26 30 28 32 38 40 40 41 41 43 46 49 50 48 42 41 40 40 41 39 39 40 46 57 53 46 49 50 56 52 54 45 45 44 43 42 46
7 9 12 17 27 24 19 17 17 16 17 20 22 24 23 21 24 26 27 29 31 35 38 43 48 47 42 37 38 45 56 52 49 46 51 56 50 58 55 52 57 57 55 57 58
6 8 12 16 17 15 14 13 14 16 17 17 18 19 30 34 38 43 52 56 54 54 54 55 58 65 65 68 65 57 56 56 59 55 52 62 57 66 61 58 53 54 55 55 49
10 12 10 13 14 14 15 16 17 16 17 19 21 26 27 32 35 38 35 46 46 48 58 59 60 59 57 62 61 60 66 64 67 71 68 65 66 66 55 48 50 59 54 52 59
13 12 11 11 13 14 16 17 18 18 18 21 23 23 27 27 27 25 26 26 32 35 42 61 65 64 64 61 58 64 61 72 70 74 74 66 59 52 52 55 59 60 57 58 56
Wind_Speed
17 12 16 13 15 16 16 19 20 19 17 15 10 11 9 9 9 6 3 4 6 6 8 8 9 9 11 12 11 6 2 5 9 9 4 1 3 7 11 15 16 14 13 12 12
15 17 14 14 16 19 19 20 19 19 18 18 16 13 11 11 13 15 15 14 15 16 17 16 14 12 12 11 9 8 7 9 11 12 13 15 15 14 12 11 10 10 10 10 8
17 17 15 15 17 16 17 21 23 26 25 23 21 21 20 21 21 19 18 16 15 16 17 15 13 15 16 17 17 17 16 18 17 15 15 14 13 10 7 7 5 6 6 6 6
14 15 16 16 15 17 26 28 29 29 28 25 24 22 23 24 24 23 22 20 16 14 19 16 17 19 19 19 17 16 16 14 14 13 12 11 9 9 5 4 5 7 8 9 8
16 16 14 15 22 31 33 33 32 29 27 25 22 21 20 20 18 20 19 19 17 16 16 15 15 17 18 17 16 14 15 13 12 9 7 9 6 4 5 6 7 7 8 9 10
14 14 17 27 35 36 35 32 29 26 24 22 20 18 19 19 17 16 15 15 14 13 13 11 12 11 9 7 7 7 9 7 7 7 6 5 4 6 7 7 7 10 10 9 11
17 25 33 37 37 34 30 27 23 22 19 17 15 15 15 17 16 14 15 13 13 12 11 10 7 6 8 7 6 6 6 4 3 5 5 5 6 5 4 5 7 9 11 12 13
31 35 37 37 34 30 27 24 20 17 16 16 15 12 11 12 11 12 12 12 11 9 8 7 6 6 6 4 3 1 2 2 2 4 5 6 3 2 4 7 8 9 11 12 12
36 38 37 34 31 29 27 24 21 19 17 15 13 11 10 9 9 9 8 8 9 6 6 7 7 6 6 6 1 2 1 1 5 4 3 6 8 8 9 9 10 11 12 13 16
38 37 33 30 28 27 25 23 21 19 17 15 13 11 8 7 7 6 6 6 5 3 3 5 6 6 6 5 2 3 2 3 3 4 4 3 4 8 9 12 16 17 17 19 21
36 34 32 30 28 26 23 21 19 18 15 14 13 10 8 7 5 3 2 2 2 2 2 1 3 2 4 5 5 5 6 4 4 3 6 6 9 11 14 17 18 18 22 25 25
33 31 29 27 26 24 22 18 16 14 12 10 7 6 4 3 3 2 2 2 1 3 5 3 1 2 3 5 6 7 9 8 10 8 5 9 12 15 17 19 21 22 24 25 26
31 29 27 25 24 22 18 15 13 8 5 3 3 2 2 2 4 5 3 3 3 5 6 6 7 7 7 8 10 10 9 10 11 14 11 12 15 16 17 18 20 23 25 26 25
30 28 25 23 20 18 16 13 12 11 8 6 7 8 7 5 7 4 4 5 5 5 7 9 11 11 12 12 12 14 15 14 15 14 13 16 19 19 21 24 24 27 29 29 29
27 26 24 21 19 18 16 15 14 13 13 13 14 12 12 11 11 10 8 8 9 8 11 12 14 17 17 16 15 17 18 18 17 16 15 16 20 22 25 27 29 32 33 32 32
26 23 23 21 19 18 18 17 17 18 20 18 17 16 15 15 14 13 13 13 13 13 14 16 17 19 21 20 19 19 20 19 17 17 17 20 22 24 28 32 35 35 35 34 34
29 26 24 22 23 22 21 20 21 23 22 21 20 19 16 15 14 14 12 14 16 18 19 20 19 20 21 23 21 21 20 18 17 18 20 23 26 29 32 34 34 35 35 37 36
30 28 26 26 24 23 23 22 23 23 22 22 21 19 15 14 12 12 14 17 20 20 19 18 19 20 20 19 19 17 15 17 20 21 23 28 31 31 31 35 37 39 40 41 41
32 29 27 26 25 25 23 21 19 19 19 19 17 15 13 13 14 16 17 14 12 14 14 13 14 15 15 15 16 17 17 19 23 26 27 28 28 32 33 36 38 40 42 43 43
31 29 29 26 23 20 17 14 12 10 11 12 13 12 12 9 7 7 7 9 11 12 12 12 12 11 12 15 17 19 22 25 28 31 32 31 21 28 36 38 35 38 40 41 42
31 28 25 21 18 16 15 11 7 6 6 6 6 7 8 8 7 7 8 11 13 11 13 16 16 15 17 19 22 24 26 28 30 31 32 36 29 31 34 35 34 34 36 40 43
26 24 23 21 18 16 12 8 5 5 4 4 5 4 5 6 7 10 13 15 15 16 17 18 20 21 21 22 24 24 26 30 33 34 34 35 32 34 38 35 35 38 41 44 44
25 23 23 22 18 14 11 9 7 6 6 6 6 6 6 7 9 12 14 15 18 19 19 20 20 22 22 24 26 27 27 30 36 38 38 38 36 35 38 41 42 46 48 47 47
21 20 20 19 17 12 10 9 8 8 7 6 6 6 5 7 11 14 16 17 18 20 21 22 23 25 27 27 27 27 29 35 40 42 44 36 40 32 38 40 44 44 45 48 50
20 20 19 17 15 12 10 10 9 8 8 7 5 5 5 10 14 16 19 21 21 23 25 26 27 31 31 32 32 28 32 36 41 41 42 40 40 40 43 46 48 46 49 53 59
19 20 19 17 14 12 11 11 10 9 8 8 8 8 10 14 16 18 21 22 25 29 31 31 34 35 34 39 40 33 34 39 39 37 38 42 43 44 45 47 47 47 55 56 59
19 18 18 18 16 15 15 14 13 11 11 11 13 15 16 19 21 22 24 29 31 34 37 41 44 44 40 38 40 30 30 37 39 38 40 43 45 46 46 48 50 51 55 58 62
Wind_Direction
249 211 205 204 208 215 199 188 191 189 170 179 180 212 208 213 208 198 172 148 116 114 104 87 87 96 107 97 94 64 141 203 209 211 204 87 39 62 84 81 72 77 70 52 40
208 179 194 205 196 189 190 183 183 155 151 144 140 136 131 127 117 111 105 103 102 98 100 94 96 115 118 113 110 124 137 156 138 113 102 104 98 87 83 71 56 57 61 48 47
199 189 186 192 193 198 186 160 149 134 130 125 121 114 113 113 104 96 98 99 99 105 108 113 118 114 113 108 110 114 123 119 113 114 109 104 102 95 77 75 57 43 44 40 43
189 192 186 198 195 172 147 139 129 126 123 123 119 117 109 102 100 98 99 101 107 115 118 122 127 130 125 117 117 125 128 122 113 112 114 109 106 111 106 71 23 360 360 358 346
163 183 193 188 159 142 132 126 127 125 125 122 121 115 106 97 94 97 98 107 114 120 122 122 131 138 135 130 134 141 135 127 118 106 99 105 98 102 65 44 36 21 8 352 325
178 185 171 153 143 133 127 126 125 125 123 121 117 112 108 103 92 89 87 93 91 95 101 108 116 121 110 102 114 120 104 98 101 89 69 43 19 14 23 35 14 7 352 333 323
167 152 146 142 135 130 128 128 126 123 120 114 112 112 113 100 93 88 80 75 72 70 68 64 81 100 122 121 140 146 138 99 51 56 30 360 346 341 318 338 340 347 336 328 327
144 144 142 136 131 129 127 126 124 122 116 113 111 110 105 96 93 84 77 68 63 63 75 93 95 94 104 80 95 71 65 34 3 315 320 326 286 177 254 277 304 307 322 336 326
145 145 141 139 138 137 134 131 129 127 124 117 113 100 91 85 85 75 71 73 71 62 52 52 55 59 64 47 28 356 320 225 269 290 302 297 316 313 293 309 313 310 315 317 311
147 145 141 138 135 130 128 128 128 127 124 122 112 103 98 82 72 62 64 61 69 74 59 48 48 26 21 26 5 290 246 216 245 303 309 326 297 307 306 307 304 307 307 305 306
147 143 139 136 132 129 130 130 130 126 121 118 116 107 91 96 83 38 40 70 116 138 256 104 59 360 345 348 340 313 292 302 298 295 297 296 287 292 300 303 306 311 310 308 307
146 143 141 138 137 138 137 134 134 132 129 129 128 129 111 85 46 1 277 302 167 210 248 260 292 301 315 320 312 301 295 305 316 324 316 288 285 285 295 303 309 310 307 301 303
152 151 148 149 151 153 146 151 156 160 153 158 188 240 285 311 341 338 279 254 263 255 267 279 278 279 279 287 293 291 290 296 303 309 312 292 290 297 297 298 297 297 293 292 299
163 161 161 164 168 169 174 179 183 198 218 240 258 267 279 290 305 302 256 254 246 266 271 278 278 281 280 281 292 300 298 295 293 289 292 288 293 296 296 294 294 294 292 296 301
173 176 177 180 185 190 196 204 210 221 242 248 255 265 270 276 288 287 270 258 268 278 280 282 281 281 283 289 297 300 300 294 290 280 279 287 293 297 299 302 299 295 295 302 308
186 189 193 200 207 214 222 227 232 238 247 258 266 270 271 274 280 279 273 265 269 277 282 285 285 286 283 282 284 291 297 297 285 280 284 292 297 303 304 300 298 300 306 312 313
197 203 209 216 222 229 235 241 244 248 260 265 269 274 277 273 270 269 262 267 279 285 284 283 281 283 287 287 286 289 292 292 282 284 290 295 298 301 303 300 301 305 310 312 310
204 211 216 224 231 240 247 250 251 256 259 264 267 273 276 271 267 265 274 281 287 290 290 287 285 286 287 289 293 294 292 289 288 288 290 296 305 308 307 302 305 309 313 311 310
210 217 225 232 240 248 254 253 251 252 254 258 263 265 266 269 276 279 282 285 291 294 297 294 290 288 289 289 288 285 287 289 288 289 294 297 305 304 300 302 307 309 307 309 308
219 226 232 238 243 246 240 238 238 247 252 254 259 266 272 276 273 283 291 290 295 305 310 306 300 294 290 288 289 295 297 297 298 301 301 301 308 299 300 305 302 303 304 304 304
224 229 233 230 226 229 229 229 237 252 267 262 261 265 274 276 277 278 279 284 295 304 308 305 302 300 300 299 299 301 301 300 301 299 302 307 314 306 301 300 302 299 300 300 301
221 223 221 221 221 219 217 223 239 250 282 275 271 270 269 280 278 276 284 292 297 299 299 300 301 302 302 301 299 300 300 301 302 303 308 309 317 308 303 305 303 307 309 308 305
214 217 217 219 220 216 218 228 229 244 255 253 259 270 288 300 307 308 304 303 303 304 304 304 302 298 297 297 298 300 305 308 305 306 308 305 314 308 307 308 313 310 309 307 306
208 209 214 217 218 221 223 228 229 239 252 255 259 270 301 329 329 320 313 309 307 307 306 306 307 304 302 301 298 302 305 302 298 300 298 309 303 304 298 301 303 303 303 301 299
203 205 207 207 208 210 217 226 230 238 246 249 260 294 326 337 332 329 320 312 308 307 305 303 303 300 301 300 297 300 297 293 297 297 299 302 301 304 305 307 306 306 304 303 303
205 207 207 205 205 206 219 233 236 236 246 264 273 278 298 316 324 324 325 318 316 317 311 309 309 302 297 294 297 302 295 297 294 295 297 301 305 303 306 306 304 304 301 305 305
210 207 206 207 206 209 221 231 238 245 254 260 266 277 289 305 310 312 311 312 315 310 312 313 307 305 305 296 295 306 301 291 293 293 298 299 303 305 308 305 306 304 307 307 306